Regional Weather Roundup
Issued by NWS

Home | Current Version | Previous Version | Graphics & Text | Print | Product List | Glossary On
Versions: 1 2 3 4 5 6 7 8 9 10 11 12 13 14 15 16 17 18 19 20 21 22 23 24 25 26 27 28 29 30 31 32 33 34 35 36 37 38 39 40 41 42 43 44 45 46 47 48 49 50
000
ASUS43 KBIS 281310
RWRND

NORTH DAKOTA REGIONAL WEATHER ROUNDUP
NATIONAL WEATHER SERVICE BISMARCK ND
800 AM CDT FRI AUG 28 2015

NOTE: "FAIR" INDICATES FEW OR NO CLOUDS BELOW 12,000 FEET WITH NO
SIGNIFICANT WEATHER AND/OR OBSTRUCTIONS TO VISIBILITY.


NDZ001>003-009>011-017-281400-
NORTHWEST NORTH DAKOTA

CITY           SKY/WX    TMP DP  RH WIND       PRES   REMARKS
WILLISTON      CLEAR     58  56  93 CALM      29.89R
MINOT          MOCLDY    67  58  72 SW13      29.83R
MINOT AFB      MOCLDY    65  63  93 W8        29.82R
$$

NDZ018>021-031>035-040>046-281400-
SOUTHWEST NORTH DAKOTA

CITY           SKY/WX    TMP DP  RH WIND       PRES   REMARKS
BISMARCK       CLEAR     60  59  96 CALM      29.91S
DICKINSON      CLEAR     59  55  87 SW6       29.92R
GARRISON         N/A     63  60  90 S6        29.88S
HETTINGER ARPT CLEAR     57  55  93 CALM      29.97R
$$

NDZ004>008-012>016-024-026-027-054-281400-
NORTHEAST NORTH DAKOTA

CITY           SKY/WX    TMP DP  RH WIND       PRES   REMARKS
GRAND FORKS    MOSUNNY   64  62  93 S10       29.84F
GRND FRKS AFB  MOSUNNY   64  62  92 S8        29.84F
DEVILS LAKE    MOSUNNY   68  57  68 SW12      29.83F
$$

NDZ022-023-025-028>030-036>039-047>053-281400-
SOUTHEAST NORTH DAKOTA

CITY           SKY/WX    TMP DP  RH WIND       PRES   REMARKS
FARGO          MOSUNNY   65  62  90 S10       29.92R
JAMESTOWN      SUNNY     60  58  92 S5        29.89F
$$




USA.gov is the U.S. government's official web portal to all federal, state and local government web resources and services.